Temp_Advection
nan nan nan nan nan nan nan nan nan nan nan nan nan nan nan nan nan nan nan nan nan nan
nan -1 -1 -1 -1 -1 -0 0 1 1 -0 -0 -1 -1 -0 -0 -0 -0 -0 -0 -0 nan
nan 0 -0 -0 -0 -0 -0 0 1 1 0 -0 -0 -0 -0 -0 0 0 -0 -0 0 nan
nan -0 -0 -0 -0 -0 0 1 1 1 0 -0 -0 0 0 0 0 -0 -0 0 0 nan
nan -1 -1 -1 -0 0 1 0 -0 0 0 0 0 0 -0 0 0 0 0 0 0 nan
nan -1 -1 -1 -1 -0 0 0 0 0 0 0 0 0 0 0 0 0 0 0 -0 nan
nan -0 -1 -0 -0 -0 -0 -0 0 0 0 0 0 0 0 0 0 0 0 0 0 nan
nan -0 -0 -0 0 0 -0 -0 -0 0 0 0 0 0 0 0 0 0 0 0 -0 nan
nan -0 -0 -0 0 0 -0 -0 0 0 -0 0 0 0 0 0 0 1 0 -0 -0 nan
nan -0 -0 -0 0 0 -0 0 0 -0 -0 0 0 0 0 0 0 0 1 0 -0 nan
nan -0 -0 0 0 0 0 -0 -0 0 -0 -0 0 0 0 0 0 0 1 0 0 nan
nan -0 -0 -0 0 0 0 0 0 0 -0 0 0 -0 -0 -0 0 0 0 0 0 nan
nan 0 0 -0 -0 -0 0 0 0 0 -0 -0 -0 -0 -0 -0 0 -0 -1 -0 -0 nan
nan nan nan nan nan nan nan nan nan nan nan nan nan nan nan nan nan nan nan nan nan nan
Wind_Speed
15 19 21 21 25 26 28 24 22 20 20 18 21 21 20 20 20 20 17 15 17 20
19 23 25 27 29 31 30 25 17 13 17 19 19 18 17 18 16 16 18 21 22 21
17 18 22 26 28 29 23 23 22 24 21 12 16 19 18 16 16 20 22 23 23 22
24 28 31 31 30 26 22 18 17 15 10 19 14 15 18 19 20 23 24 23 21 23
31 33 33 30 23 17 16 17 18 25 20 11 14 16 17 21 23 24 25 23 24 28
34 31 35 32 22 20 21 24 26 19 7 11 16 18 19 22 24 28 26 24 29 35
31 32 32 29 21 19 24 23 12 8 6 13 19 18 22 25 26 23 25 31 33 31
31 32 32 28 21 18 18 16 10 7 10 18 18 22 22 23 23 27 31 32 30 27
31 33 31 27 18 13 15 11 8 13 17 17 21 20 21 23 28 30 30 29 29 26
30 29 29 23 13 11 11 9 12 16 17 19 21 22 23 26 29 29 29 29 27 27
29 31 26 18 10 8 15 13 18 14 16 22 22 23 25 29 26 25 25 25 26 25
30 29 19 16 13 12 16 16 12 13 18 21 21 24 27 27 28 28 25 21 21 18
32 22 16 15 14 13 11 11 11 18 17 19 21 24 23 25 25 25 22 20 18 15
25 17 13 12 15 17 16 16 14 12 16 19 21 21 22 24 22 20 21 20 19 17
Wind_Direction
336 330 328 321 319 322 326 313 290 266 279 312 320 318 315 316 320 319 321 328 327 322
341 337 332 325 325 324 319 312 267 281 285 309 314 326 326 327 324 323 328 329 323 315
328 323 320 317 318 314 303 299 280 288 319 327 327 321 331 321 320 327 330 323 322 313
334 332 324 319 315 307 285 275 278 293 269 302 331 317 323 322 321 327 324 314 302 295
334 331 331 334 320 288 272 270 272 288 292 319 317 320 325 320 322 324 316 301 295 300
339 338 337 334 329 308 293 304 307 297 272 305 319 326 321 320 317 314 300 299 306 308
342 340 338 338 327 304 304 305 281 279 300 314 318 322 319 312 305 300 303 306 310 311
340 338 337 334 323 305 299 302 271 252 295 305 313 319 307 300 301 305 306 312 314 309
337 336 336 334 324 299 286 266 241 292 301 296 308 306 301 302 306 309 312 310 310 306
333 336 336 330 320 312 285 245 286 289 287 302 307 301 304 309 313 313 308 309 309 307
332 334 333 325 318 321 334 301 308 287 293 311 303 307 316 319 318 314 314 312 311 313
332 328 322 314 305 302 307 303 289 285 314 304 310 321 324 326 328 323 324 326 328 325
330 320 313 316 313 306 304 305 310 303 299 314 323 328 331 334 330 329 333 338 335 334
327 321 311 299 303 308 303 295 294 299 315 325 330 335 341 343 342 341 337 338 337 337
Height
1549 1548 1545 1542 1538 1534 1529 1526 1523 1520 1518 1517 1513 1510 1509 1505 1503 1503 1501 1497 1496 1493
1547 1544 1540 1536 1532 1527 1524 1521 1519 1519 1515 1507 1513 1506 1505 1503 1501 1500 1496 1493 1493 1490
1543 1540 1536 1531 1526 1523 1520 1517 1514 1513 1510 1511 1508 1507 1502 1499 1499 1496 1491 1490 1488 1488
1539 1535 1531 1525 1520 1517 1515 1512 1510 1507 1506 1504 1502 1501 1498 1497 1495 1490 1488 1486 1483 1481
1534 1529 1523 1518 1513 1512 1511 1507 1505 1503 1501 1502 1500 1497 1494 1493 1490 1486 1483 1481 1478 1475
1528 1523 1518 1514 1510 1508 1506 1505 1503 1501 1498 1498 1496 1492 1491 1488 1485 1482 1479 1476 1472 1467
1524 1519 1515 1510 1506 1505 1503 1500 1497 1497 1495 1495 1493 1489 1487 1485 1481 1478 1474 1470 1465 1459
1520 1515 1510 1506 1502 1499 1497 1495 1494 1494 1493 1491 1489 1486 1483 1480 1476 1472 1467 1462 1458 1453
1516 1511 1505 1499 1496 1493 1492 1492 1491 1490 1489 1487 1484 1481 1478 1475 1471 1466 1460 1455 1450 1446
1511 1505 1500 1495 1492 1491 1489 1488 1488 1486 1484 1482 1480 1477 1474 1469 1464 1458 1453 1448 1444 1439
1506 1501 1496 1492 1490 1488 1486 1485 1483 1482 1481 1478 1475 1472 1468 1462 1458 1452 1447 1442 1438 1433
1502 1496 1492 1489 1487 1485 1483 1481 1480 1479 1477 1474 1471 1467 1461 1456 1450 1446 1441 1437 1433 1428
1497 1491 1488 1486 1483 1481 1480 1478 1477 1476 1473 1470 1467 1462 1457 1452 1446 1440 1436 1433 1429 1426
1492 1488 1485 1483 1481 1479 1477 1475 1474 1472 1470 1466 1462 1458 1453 1448 1442 1437 1433 1430 1426 1423